This demonstration page uses our WeatherBlox Daily Observations layout. Learn more.

Left ArrowRight Arrow

Hourly Observations for March 17, 2015

Temp ( °F °C ) Dew Point ( °F °C ) Humidity (%) Winds ( mph kmh ) Pressure ( in mb ) Visibility ( mi km ) Precip ( " mm )
12:51 am 00:51 Clear 57 13.9 39 3.9 51 51 SE 7 11 29.93 1014 10 16 0.00 0.00
1:51 am 01:51 Clear 55 12.8 39 3.9 55 55 E 7 11 29.92 1013 10 16 0.00 0.00
2:51 am 02:51 Mostly Cloudy 58 14.4 40 4.4 51 51 SSE 7 11 29.90 1013 10 16 0.00 0.00
3:51 am 03:51 Clear 61 16.1 41 5 48 48 ESE 9 15 29.88 1012 10 16 0.00 0.00
4:51 am 04:51 Mostly Clear 61 16.1 40 4.4 46 46 ESE 9 15 29.88 1012 10 16 0.00 0.00
5:51 am 05:51 Clear 61 16.1 40 4.4 46 46 S 7 11 29.90 1013 10 16 0.00 0.00
6:51 am 06:51 Sunny 61 16.1 39 3.9 44 44 ESE 10 17 29.94 1014 10 16 0.00 0.00
7:51 am 07:51 Cloudy 63 17.2 40 4.4 43 43 ESE 8 13 29.96 1015 10 16 0.00 0.00
8:51 am 08:51 Cloudy 65 18.3 41 5 42 42 ESE 5 7 29.98 1015 10 16 0.00 0.00
9:51 am 09:51 undefined N/A N/A N/A undefined N/A N/A N/A 0.00 0.00
10:51 am 10:51 undefined N/A N/A N/A undefined N/A N/A N/A 0.00 0.00
11:51 am 11:51 Cloudy 73 22.8 42 5.6 33 33 VRB 5 7 29.95 1014 10 16 0.00 0.00
12:51 pm 12:51 Mostly Cloudy 75 23.9 44 6.7 33 33 NE 7 11 29.91 1013 10 16 0.00 0.00
1:51 pm 13:51 Mostly Cloudy 76 24.4 45 7.2 33 33 VRB 3 6 29.88 1012 10 16 0.00 0.00
2:51 pm 14:51 Sunny 78 25.6 43 6.1 29 29 NNW 5 7 29.84 1010 10 16 0.00 0.00
3:51 pm 15:51 Sunny 77 25 43 6.1 30 30 Calm 29.81 1010 10 16 0.00 0.00
4:51 pm 16:51 Mostly Cloudy 77 25 44 6.7 31 31 WSW 9 15 29.80 1009 10 16 0.00 0.00
5:51 pm 17:51 Partly Cloudy 76 24.4 43 6.1 31 31 W 9 15 29.80 1009 10 16 0.00 0.00
6:51 pm 18:51 Cloudy 71 21.7 50 10 47 47 ESE 9 15 29.86 1011 10 16 0.00 0.00
7:51 pm 19:51 Cloudy with Light Rain 63 17.2 57 13.9 81 81 SE 8 13 29.92 1013 10 16 0.03 0.76
8:51 pm 20:51 Cloudy 61 16.1 57 13.9 87 87 SE 7 11 29.95 1014 10 16 0.00 0.03
9:51 pm 21:51 Cloudy 60 15.6 56 13.3 86 86 ESE 8 13 29.94 1014 10 16 0.01 0.25
10:51 pm 22:51 Cloudy with Light Rain 60 15.6 55 12.8 84 84 E 10 17 29.94 1014 10 16 0.00 0.03
11:51 pm 23:51 Cloudy with Light Rain 59 15 56 13.3 90 90 E 10 17 29.93 1014 10 16 0.03 0.76

Powered by AerisWeather